Theta_e
313 314 318 323 313 310 315 315 315 317 323 325 325 328 329 338 330 333 344 343 343 335 335 335 336 335 334 335 335 334 335 334 333 333 332 330 326 322 319 317 318 317 317 318 318 318 317 316 317
314 319 322 321 311 313 315 314 316 318 328 340 339 341 340 341 342 342 340 332 341 335 335 336 335 337 336 337 337 337 336 335 335 334 333 333 332 329 324 319 318 318 318 318 319 319 318 316 316
319 322 322 312 310 315 316 318 320 322 325 336 337 340 342 340 340 335 333 328 331 334 334 336 335 336 337 337 337 337 337 337 336 335 335 333 333 333 330 324 320 318 319 319 319 320 319 317 317
321 322 318 316 320 318 318 320 321 320 327 333 339 339 342 343 339 331 330 327 327 332 334 335 336 337 338 339 338 338 337 337 337 337 336 335 333 332 333 332 327 321 319 320 320 320 320 318 317
321 319 313 316 317 318 317 321 321 321 329 338 341 343 343 344 336 333 334 327 326 330 334 335 337 337 337 338 338 338 338 338 338 338 337 336 334 333 331 332 333 330 324 321 320 320 321 320 317
320 317 314 316 317 317 317 320 321 324 335 341 341 341 343 342 336 342 344 341 334 329 330 332 334 334 335 336 337 338 338 338 338 338 337 337 336 335 333 332 331 333 332 327 322 320 320 321 318
318 313 316 317 317 317 318 322 323 322 326 327 340 335 344 345 347 347 347 346 346 343 338 333 334 336 335 335 335 336 337 337 337 337 336 336 336 336 334 331 331 331 332 333 329 323 321 321 320
321 313 317 316 317 318 319 322 323 323 323 327 335 333 338 345 347 347 346 347 348 348 347 345 342 338 335 335 335 335 335 336 337 337 335 334 335 337 336 334 331 332 332 332 333 332 325 322 321
323 316 315 318 319 319 320 319 323 322 322 323 328 332 341 347 346 347 348 348 348 349 349 348 347 345 342 337 335 336 336 336 336 336 335 333 333 335 337 337 336 332 332 332 331 333 332 326 323
318 314 318 317 318 318 320 320 321 322 322 323 328 331 339 347 347 346 347 348 349 349 348 347 346 344 344 339 337 336 336 336 336 335 335 334 333 333 336 337 338 335 333 332 333 331 332 332 328
318 318 317 320 322 321 320 320 322 322 321 322 327 328 335 344 344 345 347 348 348 347 346 348 344 344 345 344 343 342 343 343 342 342 343 343 341 337 332 334 336 337 336 336 335 335 333 333 333
321 320 320 321 323 321 319 322 321 322 322 324 326 328 331 335 337 337 339 341 341 340 341 342 343 344 345 342 341 342 344 345 345 345 345 342 341 342 341 338 333 333 333 335 337 337 336 335 334
319 320 322 322 321 322 321 321 320 322 322 324 326 327 329 330 331 332 332 332 333 334 334 335 338 340 341 342 342 343 344 344 343 343 343 344 343 343 342 342 342 342 341 339 336 336 336 336 336
321 321 320 321 321 322 321 320 321 322 322 324 325 326 326 327 327 327 327 326 325 324 325 325 325 328 333 338 342 344 344 343 343 342 341 341 340 340 339 339 340 339 340 340 340 340 339 338 338
321 320 318 320 321 321 322 320 319 322 322 322 323 323 325 325 325 324 324 323 323 322 322 321 320 320 321 327 333 337 337 337 335 335 336 336 336 337 338 337 337 337 337 336 337 337 337 337 338
320 319 320 320 321 321 321 321 320 321 321 319 319 319 321 322 322 322 321 320 319 318 317 316 314 315 316 317 320 329 329 329 328 328 328 327 329 326 325 328 328 330 331 332 335 335 335 336 336
318 319 321 321 321 320 320 321 319 320 320 316 315 317 318 317 317 317 316 316 314 314 313 313 312 312 310 309 309 308 308 309 309 309 310 310 310 310 311 311 311 311 314 317 319 324 332 334 334
322 322 321 320 320 320 320 319 319 318 317 314 315 316 315 314 314 313 313 312 311 311 311 311 310 309 308 308 308 308 308 309 309 308 309 308 307 306 306 306 306 307 307 308 309 311 313 319 327
321 321 321 320 319 321 322 321 320 317 314 313 313 313 314 313 312 312 311 311 310 310 310 310 310 310 309 310 310 311 310 309 309 307 305 304 303 303 302 302 301 301 301 302 305 307 310 309 311
321 322 322 320 320 324 322 321 319 315 313 314 313 312 312 311 310 310 310 309 309 309 310 310 310 309 308 309 308 307 305 301 300 300 301 301 300 299 297 296 297 298 298 299 301 303 309 312 311
322 321 321 322 323 322 322 321 322 315 313 313 313 312 311 311 310 309 309 309 309 309 309 309 309 308 307 307 304 301 300 299 299 299 299 299 298 297 297 296 296 297 298 299 306 309 311 314 314
322 321 322 325 324 325 322 325 322 316 313 312 310 310 309 310 309 309 309 308 308 308 308 308 307 307 306 303 300 300 299 299 299 299 299 298 297 296 296 296 297 297 299 299 301 309 310 311 312
322 323 324 324 324 324 324 323 321 314 313 310 308 308 310 309 309 309 309 308 307 307 307 307 306 305 303 301 300 300 299 299 299 298 298 297 297 300 301 301 300 299 301 301 302 305 308 308 309
323 324 321 321 322 326 324 324 323 322 316 311 308 308 309 309 308 308 308 307 307 307 307 306 305 304 302 300 300 300 300 298 298 298 297 301 303 302 301 301 302 303 304 305 306 305 305 305 305
321 321 323 321 322 325 323 323 322 313 313 312 309 308 309 309 308 308 307 307 306 306 306 306 304 302 301 300 300 300 299 298 297 296 301 302 302 302 303 304 303 302 303 304 305 304 304 303 303
323 323 322 324 325 321 322 324 322 311 310 313 310 308 309 308 309 308 308 306 306 306 306 304 302 301 300 300 300 299 299 298 295 297 301 303 302 302 302 301 300 301 300 299 300 299 300 300 302
324 324 320 322 321 321 322 321 314 310 310 309 308 308 308 308 307 307 306 306 305 305 304 303 301 300 300 300 299 299 299 298 295 300 302 302 301 299 299 299 299 299 299 299 299 299 299 299 300
322 321 321 318 324 324 322 323 320 313 310 309 309 309 308 309 307 306 306 305 305 304 303 302 301 300 300 299 299 299 299 298 296 300 301 301 300 300 300 300 299 299 299 300 300 299 299 299 299
321 320 322 321 319 320 320 319 314 315 311 309 309 309 309 308 307 306 306 304 303 303 302 301 300 300 299 299 299 299 298 297 297 300 301 301 300 300 300 300 300 300 300 299 299 298 298 298 298
321 321 319 315 317 318 312 320 315 314 312 311 309 310 309 308 307 307 305 303 304 302 301 300 300 300 300 300 300 298 297 297 298 298 298 300 300 299 299 299 297 299 299 298 297 297 297 297 298
Wind_Speed
2 4 4 2 4 5 2 6 3 5 2 4 10 7 7 3 3 5 11 13 10 16 24 25 23 21 20 21 20 19 17 15 14 13 12 11 10 9 8 8 8 9 8 8 8 7 7 6 5
5 5 3 2 4 3 4 5 5 3 1 23 16 10 5 3 4 13 10 13 12 13 21 23 23 21 21 20 19 18 16 14 13 12 11 10 9 8 7 7 7 7 7 7 7 6 6 6 6
5 3 4 4 3 1 4 4 4 10 4 7 5 10 3 4 11 8 11 10 11 14 17 18 20 21 21 20 18 17 15 13 12 12 11 10 9 7 7 6 5 6 6 6 6 6 6 7 7
4 2 5 4 3 6 5 9 6 9 0 8 7 5 5 3 7 11 13 11 13 15 17 18 20 20 21 19 18 16 14 13 12 12 12 11 10 10 8 6 6 6 5 5 5 5 6 6 8
3 3 4 3 4 6 7 20 14 4 2 7 8 2 3 4 10 14 14 13 15 16 16 16 17 18 18 18 18 17 16 15 13 13 13 13 13 12 11 10 9 7 6 6 6 6 6 6 9
3 3 5 1 4 6 8 12 2 2 7 11 8 6 2 10 12 12 10 11 12 11 13 14 14 15 16 17 17 17 16 15 15 14 14 14 15 15 15 14 12 11 9 8 7 7 7 8 10
4 4 3 3 4 6 4 16 7 4 2 2 17 4 7 11 12 12 10 10 10 10 10 12 13 15 16 17 17 17 17 16 15 15 15 16 16 17 17 17 16 15 14 12 11 10 10 10 10
3 4 0 2 3 6 10 18 7 2 1 5 10 5 6 16 14 14 11 10 9 8 6 5 5 6 12 15 17 17 17 17 16 16 16 17 18 19 19 20 20 19 17 17 16 14 13 13 12
2 4 2 3 2 6 12 11 17 5 6 2 5 6 20 22 19 16 16 14 11 11 10 7 4 3 5 10 12 13 14 15 16 16 17 18 18 20 21 22 22 21 21 21 21 19 18 17 17
4 4 6 5 3 6 20 11 20 6 9 6 14 17 24 24 21 16 13 13 11 9 9 9 7 7 7 8 9 11 11 12 12 13 15 17 18 20 22 23 23 24 24 24 25 24 24 23 22
5 5 5 12 16 16 9 14 9 3 3 5 20 21 22 22 21 19 15 12 9 6 7 9 12 12 12 9 8 8 6 5 6 4 6 8 12 18 21 22 24 26 26 28 29 29 30 29 29
2 10 10 11 16 4 5 10 5 9 5 5 19 25 24 24 22 21 19 17 13 7 2 2 5 8 11 13 13 10 8 6 5 6 9 11 12 13 12 16 21 24 26 29 31 33 33 34 34
4 5 5 13 17 14 13 10 8 9 3 18 28 28 29 28 25 22 20 17 14 10 7 5 3 4 4 9 10 10 9 10 13 14 13 14 14 16 17 17 19 21 24 27 31 34 36 37 39
3 12 15 15 17 14 7 9 7 4 17 28 30 29 29 29 27 24 19 17 15 13 10 6 6 6 5 6 5 8 13 12 9 9 5 4 11 10 13 16 18 20 21 25 28 32 33 38 40
5 6 9 12 9 5 10 6 9 14 22 29 30 29 27 26 26 22 19 16 12 12 10 8 5 3 3 6 6 5 3 3 4 5 8 9 11 17 19 18 20 22 24 25 20 25 31 33 37
5 2 3 5 4 6 4 10 13 18 26 29 29 28 28 26 24 22 18 14 11 9 8 7 6 6 5 6 6 5 8 9 10 9 11 11 15 14 15 16 19 24 25 25 28 26 28 32 36
3 3 3 8 3 2 2 8 7 5 27 29 30 31 28 26 23 21 17 13 12 11 9 10 8 8 8 8 7 6 5 3 4 7 10 12 13 16 18 19 20 20 21 22 22 23 22 25 34
4 3 4 6 5 1 4 9 6 6 23 25 27 32 30 28 25 21 17 14 12 10 10 9 8 6 6 4 4 3 5 8 10 13 16 19 21 22 23 25 25 26 28 26 24 25 24 27 24
4 5 5 7 6 3 3 5 9 12 18 20 27 31 32 30 26 21 17 14 13 11 9 10 8 7 5 3 6 11 17 20 22 23 23 24 26 28 29 30 31 30 30 30 30 30 29 29 26
8 8 10 7 5 1 5 10 8 7 8 31 31 27 31 29 27 23 19 15 11 10 8 8 7 9 10 12 17 22 24 25 25 25 25 26 27 28 27 25 26 26 28 28 29 30 30 31 27
10 8 5 6 4 2 0 6 3 1 4 17 20 27 32 34 30 25 20 15 11 8 6 5 6 9 14 19 21 21 21 23 26 28 31 33 34 34 32 27 26 24 23 25 26 26 26 27 28
8 6 5 3 2 3 3 4 7 2 3 6 17 28 33 34 28 25 20 16 10 6 4 4 7 12 16 20 19 20 23 26 29 34 37 39 38 36 34 31 28 24 22 23 23 23 25 26 29
8 6 4 3 2 2 3 3 7 3 4 6 11 26 32 30 26 24 19 14 10 6 2 4 9 14 17 19 20 21 25 29 31 36 38 39 38 35 30 26 23 20 20 19 18 20 22 23 26
0 2 5 4 2 1 4 2 5 4 2 2 10 23 32 28 25 22 19 15 11 7 3 6 12 16 17 17 20 24 26 32 33 37 36 35 30 24 17 14 12 12 14 15 16 18 21 24 28
3 5 3 4 2 5 2 2 8 6 5 8 19 24 32 29 25 25 21 17 13 9 6 11 15 15 15 16 20 24 28 30 34 30 30 28 25 20 17 15 14 16 18 19 20 21 22 24 26
3 5 5 5 4 5 5 5 5 4 14 10 21 25 31 29 29 27 22 18 14 10 9 12 14 11 15 19 23 28 30 31 27 26 22 21 19 19 17 16 16 17 17 18 20 22 23 26 28
3 2 4 3 3 2 4 5 5 2 4 3 15 25 29 29 28 26 24 18 13 10 10 13 14 16 18 22 26 29 29 30 24 19 16 15 16 16 15 16 15 16 16 17 19 21 23 24 26
3 2 2 3 2 5 4 5 6 5 7 7 10 21 25 26 26 20 17 14 13 12 12 15 17 16 21 24 27 28 31 29 23 18 15 14 17 15 15 16 16 17 19 21 22 22 22 22 23
3 2 5 3 4 4 5 5 5 6 9 12 20 24 30 29 25 22 18 16 16 14 16 17 16 20 23 26 28 31 31 25 20 19 18 18 17 19 18 19 21 22 23 23 23 22 23 24 25
4 2 5 4 3 4 4 6 10 10 6 17 20 27 32 30 26 21 19 17 21 19 18 19 21 23 25 26 29 29 25 21 20 21 19 20 17 19 20 24 26 29 26 23 23 23 23 23 24
Wind_Direction
117 73 54 9 45 63 234 270 274 300 300 176 174 184 189 111 148 180 140 143 134 157 161 168 173 174 174 169 167 165 163 158 154 149 146 143 145 146 148 156 154 157 157 153 150 146 138 137 143
112 83 39 33 74 28 280 265 276 256 359 112 120 135 48 44 105 132 120 125 126 154 166 168 173 180 182 177 174 174 173 170 167 165 165 164 165 159 161 167 163 166 168 168 163 159 148 152 162
105 39 45 79 88 215 271 244 267 317 256 184 121 81 63 85 121 113 126 123 135 156 166 171 177 182 188 186 181 180 181 182 182 185 186 189 188 187 189 184 185 187 187 183 182 179 167 165 174
87 65 66 84 245 256 234 284 294 327 48 171 128 72 93 148 125 130 128 132 146 162 166 176 180 185 191 192 190 191 192 195 196 199 205 208 211 212 213 211 213 214 209 205 204 204 192 176 188
65 68 59 44 275 266 247 262 298 283 71 172 148 109 74 160 147 134 123 125 145 153 164 175 182 188 193 197 200 201 203 205 208 211 214 217 221 226 230 231 233 234 234 231 226 224 214 194 200
55 71 56 315 254 274 296 310 313 10 153 119 83 68 67 136 156 137 122 114 118 133 152 167 178 187 196 202 207 209 213 216 218 221 224 226 227 231 234 238 242 243 243 245 245 243 235 217 209
97 79 173 256 279 304 295 350 95 310 91 183 140 109 149 147 167 148 149 149 143 145 153 170 185 192 198 205 211 216 221 225 227 229 232 232 233 234 239 242 245 248 250 253 255 253 250 240 222
71 84 78 255 311 289 342 9 356 25 285 144 150 172 160 161 167 166 163 157 154 150 146 156 180 212 221 217 218 220 224 229 234 237 238 239 237 235 237 241 244 248 252 255 257 260 258 254 241
95 60 286 263 263 280 347 2 330 352 9 28 257 141 152 166 175 171 160 158 166 165 164 166 173 196 234 235 234 239 243 242 244 247 249 249 247 242 240 241 244 247 252 257 259 260 261 260 254
117 126 229 223 296 319 306 308 304 342 14 75 113 136 164 168 177 180 165 161 172 181 188 199 192 190 182 190 213 232 243 256 262 268 270 271 266 258 251 249 248 249 251 253 257 259 260 258 256
161 190 220 273 284 290 284 291 265 245 286 189 154 154 164 173 171 168 163 175 177 190 210 226 217 226 230 214 218 208 199 219 244 258 292 298 297 276 264 260 258 257 256 257 256 256 256 256 257
231 230 245 280 298 291 257 293 240 216 266 192 172 163 162 165 160 163 163 162 162 161 114 318 290 243 245 249 248 253 244 263 261 256 261 278 288 294 297 276 271 270 269 269 268 265 263 262 260
217 273 295 289 295 286 288 249 261 278 161 167 163 161 156 154 154 157 164 164 168 180 182 192 220 257 258 264 260 247 240 247 256 258 256 271 275 283 282 280 281 278 277 275 272 269 268 266 264
291 292 286 300 287 274 228 254 182 199 165 163 167 161 162 163 165 166 168 171 178 182 189 204 227 228 240 260 268 246 243 237 233 237 260 265 280 278 273 279 278 278 284 283 283 281 276 273 270
284 319 330 294 281 251 209 275 223 206 180 170 166 163 162 165 169 172 169 168 174 166 161 160 175 219 231 221 216 250 285 338 342 317 298 299 296 296 291 290 289 283 280 280 292 295 287 283 281
358 41 4 282 288 302 160 267 267 173 171 166 165 165 164 162 165 164 162 163 149 134 133 123 116 121 111 100 106 191 235 268 281 287 291 291 294 297 295 290 288 285 287 288 281 282 287 289 283
359 248 231 308 279 221 149 283 17 112 180 158 161 165 161 157 156 154 152 149 146 142 136 129 117 98 89 89 91 86 75 39 358 325 312 309 304 302 303 303 303 301 295 292 290 279 277 290 287
233 211 249 258 290 251 238 266 318 110 144 148 157 165 165 160 153 151 148 148 142 137 136 123 113 106 83 62 47 30 7 345 328 316 308 305 304 304 301 298 294 293 293 292 292 292 285 281 291
317 286 247 269 276 272 291 297 297 158 136 151 165 170 169 163 156 155 155 157 153 133 116 92 84 64 21 360 340 341 339 329 320 316 314 310 306 304 302 300 300 300 300 298 294 294 293 287 291
257 261 276 276 247 189 288 285 261 141 187 181 172 171 169 161 158 156 160 159 154 133 105 87 55 19 0 347 346 341 331 330 331 329 323 320 316 317 319 319 315 308 302 295 293 290 290 292 291
245 226 236 241 310 271 93 303 305 142 122 180 181 175 174 170 164 164 163 163 152 135 110 66 25 358 340 339 338 332 331 330 331 330 329 328 326 324 319 317 313 314 304 301 299 301 292 298 294
245 217 222 255 6 285 143 273 293 151 114 166 169 175 175 172 169 170 169 161 159 146 113 35 354 330 328 334 337 342 343 342 340 335 330 326 323 320 316 312 311 310 310 305 292 294 301 308 305
245 187 207 254 161 2 300 88 263 81 272 210 188 181 179 175 174 172 172 172 167 160 109 347 322 322 332 339 341 339 338 339 334 330 326 325 324 319 313 310 308 307 309 309 301 290 296 297 299
8 81 51 42 96 28 265 104 272 240 290 174 196 188 182 176 176 176 175 178 182 190 232 299 311 316 329 333 336 335 334 336 330 329 330 333 336 342 343 335 327 317 324 321 304 299 301 301 298
85 74 318 332 353 223 355 3 245 291 260 222 196 188 183 181 181 181 186 193 203 212 245 293 303 317 324 325 329 330 332 332 330 332 334 338 343 355 1 356 343 345 332 323 316 311 304 300 299
191 155 179 228 224 251 335 244 258 263 315 291 189 180 183 188 190 190 195 200 206 222 269 296 301 306 321 324 325 329 328 327 324 322 326 327 332 328 333 336 334 328 323 322 316 310 306 304 297
212 144 174 134 29 35 243 299 294 330 5 119 168 185 196 197 194 197 201 204 220 244 281 295 309 311 318 319 321 321 320 320 315 311 310 316 319 322 325 322 323 323 320 316 316 316 313 306 304
105 116 70 8 278 260 271 263 247 282 243 220 207 206 208 205 203 208 218 229 241 263 281 301 299 303 313 314 314 315 316 314 307 294 291 298 303 304 311 313 313 314 315 315 312 311 310 307 303
351 38 43 103 139 210 284 257 227 249 223 209 219 216 212 209 208 210 224 238 249 266 273 283 291 304 306 310 312 315 314 307 297 283 272 279 288 292 303 306 308 311 313 309 306 306 304 303 307
334 181 168 133 246 231 209 254 255 249 258 223 229 222 222 215 214 222 228 238 266 261 270 284 294 296 303 308 311 313 309 304 295 291 278 276 276 291 301 304 312 311 311 308 303 302 303 307 310